Date String (YYYY-MM-DD hh:mm:ss) UTC,Instrument flags,Ambient pressure (hPa),Sample flow (lpm),Bypass flow (lpm),Sample temperature (°C),Ambient temperature (°C),ASC tube jacket temperature (°C),LED temperature (°C),Box temperature (°C),Sample RH (%),Span deviation,Mass concentration (μg/m³),Mass concentration (μg/m³),Mass concentration (μg/m³)
DateTimeUTC,F1_M11,P_M11,Q1_M11,Q2_M11,T1_M11,T2_M11,T3_M11,T4_M11,T5_M11,U1_M11,ZSPAN_M11,X0_M11,X2_M11,X1_M11
2021-11-18 13:00:00,,0833.9,5.01,0.00,22.2,21.6,00.0,31.4,23.9,08.6,0000.0,0010.47,0003.66,0002.62
2021-11-18 13:01:00,,0833.9,5.00,0.00,22.2,21.5,00.0,31.3,23.9,08.6,0000.0,0009.86,0003.60,0002.61
2021-11-18 13:02:00,,0833.9,4.99,0.00,22.2,21.4,00.0,31.3,23.8,08.8,0000.0,0010.16,0003.62,0002.63
2021-11-18 13:03:00,,0833.9,5.01,0.00,22.2,21.4,00.0,31.3,23.8,09.0,0000.0,0010.30,0003.63,0002.64
2021-11-18 13:04:00,,0833.9,4.99,0.00,22.1,21.4,00.0,31.3,23.8,09.0,0000.0,0009.83,0003.63,0002.66
2021-11-18 13:05:00,,0834.0,4.99,0.00,22.2,22.0,00.0,31.3,23.9,09.1,0000.0,0009.87,0003.66,0002.69
2021-11-18 13:06:00,,0834.0,5.01,0.00,22.3,22.8,00.0,31.3,24.1,09.1,0000.0,0010.36,0003.71,0002.72
2021-11-18 13:07:00,,0834.1,5.00,0.00,22.4,23.2,00.0,31.4,24.3,09.0,0000.0,0010.08,0003.71,0002.71
2021-11-18 13:08:00,,0834.1,4.99,0.00,22.4,22.9,00.0,31.4,24.3,08.9,0000.0,0009.69,0003.65,0002.69
2021-11-18 13:09:00,,0834.1,5.01,0.00,22.4,22.7,00.0,31.4,24.3,08.9,0000.0,0009.55,0003.65,0002.69
2021-11-18 13:10:00,,0834.1,4.99,0.00,22.4,22.4,00.0,31.4,24.2,08.9,0000.0,0009.58,0003.66,0002.68
2021-11-18 13:11:00,,0834.0,5.01,0.00,22.4,22.2,00.0,31.4,24.1,08.9,0000.0,0009.39,0003.65,0002.69
2021-11-18 13:12:00,,0834.1,4.99,0.00,22.4,22.0,00.0,31.4,24.0,08.9,0000.0,0009.05,0003.67,0002.69
2021-11-18 13:13:00,,0834.1,5.01,0.00,22.3,21.9,00.0,31.4,24.0,08.9,0000.0,0008.80,0003.66,0002.67
2021-11-18 13:14:00,,0834.0,4.99,0.00,22.3,21.7,00.0,31.4,24.0,08.8,0000.0,0009.24,0003.62,0002.65
2021-11-18 13:15:00,,0834.0,4.99,0.00,22.3,21.7,00.0,31.3,24.0,08.8,0000.0,0010.20,0003.62,0002.61
2021-11-18 13:16:00,,0834.0,5.00,0.00,22.2,21.6,00.0,31.3,23.9,08.8,0000.0,0010.29,0003.59,0002.57
2021-11-18 13:17:00,,0834.0,5.00,0.00,22.2,21.5,00.0,31.3,23.9,08.6,0000.0,0010.26,0003.55,0002.52
2021-11-18 13:18:00,,0834.0,5.00,0.00,22.2,21.5,00.0,31.3,23.9,08.6,0000.0,0010.37,0003.53,0002.48
2021-11-18 13:19:00,,0834.0,5.01,0.00,22.2,21.5,00.0,31.3,23.8,08.6,0000.0,0010.47,0003.56,0002.46
2021-11-18 13:20:00,,0834.0,4.99,0.00,22.2,22.0,00.0,31.3,24.0,08.6,0000.0,0010.57,0003.57,0002.44
2021-11-18 13:21:00,,0834.0,5.01,0.00,22.3,22.8,00.0,31.3,24.2,08.6,0000.0,0010.77,0003.54,0002.42
2021-11-18 13:22:00,,0834.0,5.00,0.00,22.4,23.2,00.0,31.4,24.4,08.5,0000.0,0010.62,0003.50,0002.38
2021-11-18 13:23:00,,0834.0,4.99,0.00,22.5,22.9,00.0,31.4,24.4,08.5,0000.0,0010.69,0003.49,0002.35
2021-11-18 13:24:00,,0834.0,5.00,0.00,22.5,22.7,00.0,31.4,24.3,08.5,0000.0,0010.59,0003.47,0002.32
2021-11-18 13:25:00,,0834.0,5.01,0.00,22.5,22.4,00.0,31.4,24.2,08.5,0000.0,0009.85,0003.44,0002.31
2021-11-18 13:26:00,,0834.0,5.00,0.00,22.4,22.2,00.0,31.4,24.2,08.5,0000.0,0009.06,0003.44,0002.32
2021-11-18 13:27:00,,0834.0,4.99,0.00,22.4,22.1,00.0,31.4,24.1,08.5,0000.0,0009.53,0003.44,0002.30
2021-11-18 13:28:00,,0834.0,5.02,0.00,22.4,22.0,00.0,31.4,24.1,08.5,0000.0,0009.36,0003.45,0002.29
2021-11-18 13:29:00,,0834.0,4.98,0.00,22.4,21.9,00.0,31.4,24.0,08.5,0000.0,0009.40,0003.47,0002.31
2021-11-18 13:30:00,,0834.0,5.01,0.00,22.3,21.8,00.0,31.4,24.0,08.5,0000.0,0010.14,0003.46,0002.31
2021-11-18 13:31:00,,0834.0,4.99,0.00,22.3,21.7,00.0,31.4,24.0,08.5,0000.0,0010.68,0003.48,0002.32
2021-11-18 13:32:00,,0834.0,5.01,0.00,22.3,21.6,00.0,31.3,23.9,08.5,0000.0,0010.65,0003.50,0002.33
2021-11-18 13:33:00,,0834.0,4.99,0.00,22.2,21.5,00.0,31.3,23.9,08.5,0000.0,0011.14,0003.54,0002.34
2021-11-18 13:34:00,,0834.0,5.01,0.00,22.2,21.5,00.0,31.3,23.9,08.4,0000.0,0011.00,0003.56,0002.35
2021-11-18 13:35:00,,0834.0,4.99,0.00,22.2,21.5,00.0,31.3,23.9,08.4,0000.0,0010.93,0003.57,0002.36
2021-11-18 13:36:00,,0834.0,5.02,0.00,22.2,21.7,00.0,31.3,23.9,08.4,0000.0,0010.94,0003.56,0002.35
2021-11-18 13:37:00,,0834.0,5.00,0.00,22.3,22.5,00.0,31.3,24.1,08.4,0000.0,0010.90,0003.56,0002.35
2021-11-18 13:38:00,,0834.1,4.99,0.00,22.4,23.2,00.0,31.4,24.3,08.3,0000.0,0011.05,0003.56,0002.36
2021-11-18 13:39:00,,0834.1,4.99,0.00,22.5,23.1,00.0,31.4,24.4,08.1,0000.0,0011.10,0003.58,0002.39
2021-11-18 13:40:00,,0834.1,5.00,0.00,22.5,22.9,00.0,31.4,24.4,08.1,0000.0,0010.81,0003.56,0002.37
2021-11-18 13:41:00,,0834.0,5.00,0.00,22.5,22.6,00.0,31.4,24.3,08.0,0000.0,0010.25,0003.55,0002.37
2021-11-18 13:42:00,,0834.0,5.00,0.00,22.5,22.4,00.0,31.4,24.3,07.9,0000.0,0010.13,0003.52,0002.35
2021-11-18 13:43:00,,0834.0,5.01,0.00,22.5,22.2,00.0,31.4,24.2,07.9,0000.0,0010.68,0003.50,0002.33
2021-11-18 13:44:00,,0834.1,4.99,0.00,22.4,22.1,00.0,31.4,24.2,07.9,0000.0,0010.27,0003.47,0002.30
2021-11-18 13:45:00,,0834.0,5.01,0.00,22.4,21.9,00.0,31.4,24.1,07.9,0000.0,0010.04,0003.44,0002.28
2021-11-18 13:46:00,,0834.0,5.00,0.00,22.4,21.8,00.0,31.4,24.1,08.0,0000.0,0010.04,0003.39,0002.26
2021-11-18 13:47:00,,0833.9,4.99,0.00,22.3,21.7,00.0,31.4,24.0,08.1,0000.0,0010.73,0003.44,0002.26
2021-11-18 13:48:00,,0833.9,5.01,0.00,22.3,21.7,00.0,31.4,24.0,08.2,0000.0,0011.17,0003.42,0002.25
2021-11-18 13:49:00,,0834.0,4.99,0.00,22.3,21.6,00.0,31.4,24.0,08.2,0000.0,0010.51,0003.41,0002.24
2021-11-18 13:50:00,,0834.0,5.01,0.00,22.3,21.6,00.0,31.4,23.9,08.2,0000.0,0010.56,0003.39,0002.23
2021-11-18 13:51:00,,0834.0,4.99,0.00,22.2,21.5,00.0,31.3,23.9,08.2,0000.0,0010.60,0003.43,0002.24
2021-11-18 13:52:00,,0834.0,5.01,0.00,22.2,21.5,00.0,31.3,23.8,08.2,0000.0,0010.85,0003.41,0002.23
2021-11-18 13:53:00,,0834.0,5.00,0.00,22.2,22.0,00.0,31.3,24.0,08.2,0000.0,0011.03,0003.46,0002.22
2021-11-18 13:54:00,,0834.0,4.99,0.00,22.4,22.8,00.0,31.4,24.2,08.2,0000.0,0010.23,0003.48,0002.22
2021-11-18 13:55:00,,0834.0,5.00,0.00,22.5,23.2,00.0,31.4,24.4,08.2,0000.0,0010.15,0003.46,0002.23
2021-11-18 13:56:00,,0834.0,5.01,0.00,22.5,23.0,00.0,31.4,24.4,08.2,0000.0,0010.32,0003.46,0002.25
2021-11-18 13:57:00,,0834.0,5.00,0.00,22.5,22.7,00.0,31.4,24.4,08.1,0000.0,0010.67,0003.50,0002.26
2021-11-18 13:58:00,,0834.0,5.00,0.00,22.5,22.5,00.0,31.4,24.3,07.9,0000.0,0010.10,0003.47,0002.25
2021-11-18 13:59:00,,0834.0,5.00,0.00,22.5,22.3,00.0,31.4,24.2,07.0,0000.0,0009.58,0003.44,0002.19
